Tracking 19792 objects as of 16-Jul-2019
HD Live streaming from Space Station
objects crossing your sky now

FENGYUN 1C DEB

Track FENGYUN 1C DEB now!
10-day predictions


NORAD ID: 31041
Int'l Code: 1999-025BEK
Perigee: 817.2 km
Apogee: 985.0 km
Inclination: 99.2 °
Period: 102.9 minutes
Semi major axis: 7272 km
RCS: 0.0058 m2 (small)
Launch date: May 10, 1999
Source: People's Republic of China (PRC)
Launch site: Taiyaun Space Center, China (TSC)

Note: This is SATELLITE DEBRIS
aabbcc
Your satellite tracking list
Your tracking list is empty




NASA's NSSDC Master Catalog

Two Line Element Set (TLE):
1 31041U 99025BEK 19196.88267118  .00000666  00000-0  45738-3 0  9999
2 31041  99.1581 158.5755 0115371 331.1044  53.3919 13.99945567626444
Source of the keplerian elements: AFSPC